STARLINK-2218

Last updated on Sat Apr 24 2021 00:02:02 GMT+0000 (Coordinated Universal Time)

1 47999U 21024Y 21113.25001157 .00080818 00000-0 57471-3 0 9998 2 47999 53.0487 55.6876 0001315 80.6159 77.2218 15.73196386 1820

Satellite not in orbit

STARLINK-2218